Showing default

ICEYE-X71, 68494

Orbit data source: Space-Track

ICEYE-X71, 68494 is a payload satellite owned by ICEYE (FI) in SSO that was launched on Mon, 30 Mar 2026 UTC via an FALCON 9 launch vehicle from the Air Force Western Test Range (AFWTR). Payload-class satellites include a variety of spacecraft equipped with specific instruments for various scientific and technological missions. These include communications satellites like Starlink; space stations such as the ISS; scientific satellites like the Hubble; Earth observation satellites from companies like Planet Labs, Umbra, and HawkEye 360; GPS; miniature CubeSats for education and research; and military/defense satellites.

Loading next visibility...
Identifier
68494, 2026-067CG
Orbit
SSO
Country
Flag of FIFI / FIN
Related business
Manufacturer
ICEYE
Mission
Operational spacecraft
Bus & Motor
ICEYE, Unknown motor
Mass
120 kg wet, 120 kg dry
Launch date (UTC)
2026-03-30 (1 month ago)
Launch vehicle
FALCON 9
Launch site
Air Force Western Test Range (AFWTR)
Object type
Payload
Rocket body
Debris
Shape & HBR
Unknown shape, 14.5 m
Radar Cross Section
RCS unknown

Expand to show TLE details & history
Last TLE update: 5 hours ago

TLE from 5 hours ago
0 ICEYE-X71
1 68494U 26067CG  26127.60924904  .00001929  00000-0  19836-3 0  9995
2 68494  97.7585  86.4845 0003091 128.8974 231.2521 14.91477160  5675
Epoch: 2026-05-07T14:37Z
TLE epoch observation values (Epoch: 2026-05-07T14:37:19.117Z)
Latitude
0.00004°
Longitude
1.70191°
Altitude
597.72 km
Speed
7.56 km/s
True Right ascension
05h 45m 56s
True Declination
0° 00' 00"
Sunlit
Object was in daylight at epoch
Visualization orbit readout
Latitude
Unknown
Longitude
Unknown
Altitude
Unknown
Speed
Unknown
Apparent Right ascension
Unknown
Apparent Declination
Unknown
Sunlit
N/A
Visualization observer readout
Local Sidereal Time
04:01:44
Azimuth
Unknown
Elevation
Unknown
Doppler factor
Unknown
Orbital elements
Apogee altitude
592.502 km
Perigee altitude
588.194 km
Semi-major axis
6,968.485 km
Eccentricity
0.00031
Inclination
97.7585°
RAAN
86.4845°
Arg. of periapsis
128.8974°
True anomaly
231.22448°
Mean anomaly
231.2521°
Eccentric anomaly
231.23829°
Mean motion
3.73109 °/min
Orbital period
96.49 mins
BSTAR
0.00019836
Loading maneuver chart data...
Computing Atmospheric mass density...
Loading historical data...
Loading historical data...
Loading historical data...
Loading historical data...
Loading historical data...
Loading historical data...
Loading historical data...

Documentation

Showing up to 5 results
|